Location: Pasarilla del Rebollar
(40.6790°N, 5.0062°W)
Time: 11:48:09
(UTC+00:00)

Cosmos 1709 Rocket - Pass Details

Date: 22 April 2026
Orbit: 946 x 1001 km, 82.9° (Epoch: 15 May)

Event Time Altitude Azimuth Distance (km) Brightness Sun altitude
Rises 04:34:54 0° 354° (N) 3,625 7.3 -10.7°
Reaches altitude 10° 04:37:24 10° 356° (N) 2,675 6.6 -10.3°
Maximum altitude 04:43:30 74° 82° (E) 985 4.2 -9.3°
Drops below altitude 10° 04:49:36 10° 167° (SSE) 2,672 6.2 -8.2°
Sets 04:52:06 0° 169° (S) 3,620 6.8 -7.8°
